weather.gov     
National Weather Service

Regional Weather Roundup
NWS Homepage
This page is being discontinued on March 12, 2014.
The same data is available at this site. Please update your bookmarks.
Thank you, and we apologize for the inconvenience.
Please send an email to SR-SRH.Webmaster@noaa.gov with any concerns.


Current Version
Previous Version:    01  02  03  04  05  06  07  08  09  10  11  12  13  14  15  16  17  18  19  20  21  22  23  24  25  26  
[Printable]
629
ASUS44 KLZK 222105
RWRLZK

WEATHER ROUNDUP FOR ARKANSAS
NATIONAL WEATHER SERVICE LITTLE ROCK AR
400 PM CDT FRI AUG 22 2014

NOTE: "FAIR" INDICATES FEW OR NO CLOUDS BELOW 12,000 FEET WITH NO
SIGNIFICANT WEATHER AND/OR OBSTRUCTIONS TO VISIBILITY.

ARZ001-003-010-029-222200-
NORTHWEST ARKANSAS

CITY           SKY/WX    TMP DP  RH WIND       PRES   REMARKS
FAYETTEVILLE   SUNNY     92  72  51 S9        30.01F HX  99
FORT SMITH     SUNNY     96  73  47 S10       29.96F HX 105
HARRISON       SUNNY     93  71  48 SW7       30.01F HX 100
BENTONVILLE    SUNNY     93  72  49 SW8       30.02F HX 100
ROGERS         SUNNY     95  67  39 SW9G22    30.02F HX  99
SILOAM SPGS    SUNNY     93  72  49 SW15      30.01F HX 100
HIGHFILL       SUNNY     95  71  45 S15       30.00F HX 102
SPRINGDALE     MOSUNNY   93  72  49 SW14      30.03F HX 100
$$

ARZ004-005-016-222200-
NORTH CENTRAL ARKANSAS

CITY           SKY/WX    TMP DP  RH WIND       PRES   REMARKS
BATESVILLE     SUNNY     99  72  41 W13       29.97F HX 107
FLIPPIN          N/A     97  70  41 S13       29.98F HX 103
MTN HOME       SUNNY     97  70  41 SW8       29.97F HX 103
$$

ARZ040-041-222200-
WEST CENTRAL ARKANSAS

CITY           SKY/WX    TMP DP  RH WIND       PRES   REMARKS
MENA           SUNNY     91  77  62 CALM      30.04F HX 105
MOUNT IDA      SUNNY     91  76  61 VRB5      30.01F HX 103
$$

ARZ009-017-025-026-028-222200-
NORTHEAST ARKANSAS

CITY           SKY/WX    TMP DP  RH WIND       PRES   REMARKS
CORNING        LGT RAIN  95  77  55 S12       29.97F HX 109
JONESBORO      MOSUNNY   94  74  52 S13       29.97F HX 104
NEWPORT        SUNNY     97  76  50 S7        29.98F HX 110
WALNUT RIDGE   PTSUNNY   93  75  55 S13       29.95F HX 104
BLYTHEVILLE    MOSUNNY   93  77  59 SW9       29.99F HX 107
$$

ARZ022-023-033-042-044-222200-
CENTRAL ARKANSAS

CITY           SKY/WX    TMP DP  RH WIND       PRES   REMARKS
LITTLE ROCK    MOSUNNY   95  73  48 SW9       30.00F HX 104
N LITTLE ROCK  MOSUNNY   94  76  55 S8        30.00F HX 107
JACKSONVILLE   SUNNY     95  76  54 SE7       29.99F HX 108
SEARCY           N/A     96  75  50 CALM        N/A  HX 107
HOT SPRINGS    SUNNY     92  75  57 SW9       30.02F HX 103
RUSSELLVILLE   SUNNY     94  73  50 S7        29.99F HX 103
CLINTON        FAIR      99  73  44 S6        29.98F HAZE    HX 109
$$

ARZ036-222200-
EAST ARKANSAS

CITY           SKY/WX    TMP DP  RH WIND       PRES   REMARKS
WEST MEMPHIS   MOSUNNY   94  77  57 VRB6      30.00F HX 108
$$

ARZ050-053-066-070-073-222200-
SOUTHWEST ARKANSAS

CITY           SKY/WX    TMP DP  RH WIND       PRES   REMARKS
ARKADELPHIA    FAIR      93  76  57 W7        30.01F HX 105
CAMDEN         SUNNY     93  72  49 SW6       30.02F HX 100
TEXARKANA      SUNNY     94  71  47 W7        30.02F HX 101
EL DORADO      SUNNY     92  73  53 CALM      30.04F HX 100
DE QUEEN       SUNNY     92  75  57 S5        29.99F HX 103
$$

ARZ056-057-069-222200-
SOUTHEAST ARKANSAS

CITY           SKY/WX    TMP DP  RH WIND       PRES   REMARKS
PINE BLUFF     SUNNY     93  74  53 SW10      30.01F HX 103
STUTTGART      SUNNY     93  73  52 S10       30.02F HX 102
MONTICELLO     SUNNY     94  71  47 S10       30.03F HX 101

$$






U.S. Dept. of Commerce
NOAA National Weather Service
1325 East West Highway
Silver Spring, MD 20910
E-mail: w-nws.webmaster@noaa.gov
Page last modified: May 16, 2007
NATIONAL WEATHER SERVICE: for Safety, for Work, for Fun - FOR LIFE